TimeCDT,TemperatureF,Dew PointF,Humidity,Sea Level PressureIn,VisibilityMPH,Wind Direction,Wind SpeedMPH,Gust SpeedMPH,PrecipitationIn,Events,Conditions,WindDirDegrees,DateUTC
12:53 AM,41.0,37.9,89,30.22,10.0,Calm,Calm,-,N/A,,Clear,0,2011-10-02 05:53:00
1:53 AM,39.2,37.4,93,30.22,10.0,Calm,Calm,-,N/A,,Clear,0,2011-10-02 06:53:00
2:53 AM,44.1,39.0,82,30.22,10.0,WNW,3.5,-,N/A,,Clear,300,2011-10-02 07:53:00
3:53 AM,42.1,37.0,82,30.23,10.0,NNW,3.5,-,N/A,,Clear,330,2011-10-02 08:53:00
4:53 AM,43.0,37.0,80,30.24,10.0,NNW,3.5,-,N/A,,Clear,330,2011-10-02 09:53:00
5:53 AM,42.1,36.0,79,30.25,10.0,Calm,Calm,-,N/A,,Clear,0,2011-10-02 10:53:00
6:53 AM,42.1,36.0,79,30.26,10.0,Calm,Calm,-,N/A,,Clear,0,2011-10-02 11:53:00
7:53 AM,44.6,37.4,76,30.28,10.0,North,3.5,-,N/A,,Clear,350,2011-10-02 12:53:00
8:53 AM,48.2,41.0,76,30.29,10.0,NNE,5.8,-,N/A,,Clear,20,2011-10-02 13:53:00
9:53 AM,51.8,41.0,67,30.29,10.0,NNE,8.1,-,N/A,,Clear,20,2011-10-02 14:53:00
10:53 AM,57.2,41.0,55,30.29,10.0,North,9.2,-,N/A,,Clear,10,2011-10-02 15:53:00
11:53 AM,60.1,39.0,46,30.27,10.0,NNE,5.8,-,N/A,,Clear,20,2011-10-02 16:53:00
12:53 PM,64.4,35.6,34,30.25,10.0,NE,8.1,-,N/A,,Clear,40,2011-10-02 17:53:00
1:53 PM,66.0,34.0,30,30.22,10.0,NNE,8.1,-,N/A,,Clear,30,2011-10-02 18:53:00
2:53 PM,68.0,33.1,27,30.20,10.0,NNW,8.1,-,N/A,,Clear,340,2011-10-02 19:53:00
3:53 PM,68.0,33.1,27,30.19,10.0,NNE,5.8,-,N/A,,Clear,30,2011-10-02 20:53:00
4:53 PM,68.0,37.0,32,30.18,10.0,North,6.9,-,N/A,,Clear,350,2011-10-02 21:53:00
5:53 PM,64.9,34.0,32,30.18,10.0,NNW,4.6,-,N/A,,Clear,340,2011-10-02 22:53:00
6:53 PM,57.0,37.9,49,30.18,10.0,WNW,3.5,-,N/A,,Clear,290,2011-10-02 23:53:00
7:53 PM,46.4,42.8,87,30.18,10.0,WSW,3.5,-,N/A,,Clear,240,2011-10-03 00:53:00
8:53 PM,45.0,41.0,86,30.20,10.0,Calm,Calm,-,N/A,,Clear,0,2011-10-03 01:53:00
9:53 PM,45.0,39.9,82,30.20,10.0,Calm,Calm,-,N/A,,Clear,0,2011-10-03 02:53:00
10:53 PM,43.0,39.0,86,30.19,10.0,Calm,Calm,-,N/A,,Clear,0,2011-10-03 03:53:00
11:53 PM,42.8,39.2,87,30.19,10.0,Calm,Calm,-,N/A,,Clear,0,2011-10-03 04:53:00